JA53GM RJFK-RJFM

Flight info

Callsign JA53GM
Flight time 0h 58m
Altitude 7000
Route MZE/N0110VFR VFR RJFM TRAFFIC
Aircraft SR22/L-SDLOV/LB1

Departure

Time 2026-05-01 12:27
Airport Kagoshima Airport (RJFK)

Arrival

Time 2026-05-01 13:25
Airport Miyazaki Airport (RJFM)
Time Latitude Longitude Altitude Speed Heading
2026-05-01 12:10 31.79616 130.72131 871 ft 0 kts 148°
2026-05-01 12:19 31.79628 130.72128 871 ft 5 kts 340°
2026-05-01 12:19 31.79654 130.72168 871 ft 7 kts 116°
2026-05-01 12:19 31.79598 130.72215 870 ft 11 kts 152°
2026-05-01 12:20 31.79508 130.72273 866 ft 16 kts 148°
2026-05-01 12:20 31.79486 130.72372 865 ft 9 kts 73°
2026-05-01 12:20 31.79497 130.72395 864 ft 0 kts 11°
2026-05-01 12:23 31.79525 130.72429 864 ft 16 kts 58°
2026-05-01 12:23 31.79577 130.72452 865 ft 1 kts 323°
2026-05-01 12:26 31.79578 130.72452 865 ft 2 kts 327°
2026-05-01 12:26 31.80316 130.71964 1134 ft 89 kts 332°
2026-05-01 12:26 31.80884 130.71632 1476 ft 93 kts 327°
2026-05-01 12:27 31.81460 130.71242 1775 ft 102 kts 330°
2026-05-01 12:27 31.82817 130.71419 2506 ft 106 kts 44°
2026-05-01 12:28 31.82892 130.73076 3070 ft 125 kts 120°
2026-05-01 12:28 31.82391 130.73965 3269 ft 135 kts 122°
2026-05-01 12:28 31.81342 130.75804 3905 ft 131 kts 122°
2026-05-01 12:29 31.81088 130.76791 4286 ft 125 kts 92°
2026-05-01 12:29 31.81029 130.77786 4678 ft 119 kts 92°
2026-05-01 12:29 31.80915 130.79483 5489 ft 104 kts 92°
2026-05-01 12:30 31.80798 130.81251 6061 ft 111 kts 92°
2026-05-01 12:30 31.80833 130.82159 6361 ft 112 kts 79°
2026-05-01 12:30 31.80963 130.83057 6656 ft 112 kts 76°
2026-05-01 12:31 31.81080 130.83966 6927 ft 115 kts 80°
2026-05-01 12:31 31.81201 130.84975 7000 ft 134 kts 81°
2026-05-01 12:31 31.81338 130.86137 7007 ft 152 kts 81°
2026-05-01 12:31 31.81487 130.87418 7002 ft 163 kts 81°
2026-05-01 12:32 31.81642 130.88753 6999 ft 169 kts 81°
2026-05-01 12:32 31.81966 130.91565 6996 ft 175 kts 81°
2026-05-01 12:32 31.82130 130.92986 6995 ft 177 kts 81°
2026-05-01 12:33 31.82296 130.94432 6995 ft 177 kts 81°
2026-05-01 12:33 31.82460 130.95856 6995 ft 178 kts 81°
2026-05-01 12:33 31.82627 130.97302 6995 ft 178 kts 81°
2026-05-01 12:33 31.82794 130.98753 6995 ft 178 kts 81°
2026-05-01 12:34 31.82960 131.00197 6996 ft 178 kts 81°
2026-05-01 12:34 31.83125 131.01630 6996 ft 178 kts 81°
2026-05-01 12:34 31.83292 131.03082 6996 ft 178 kts 81°
2026-05-01 12:34 31.83458 131.04527 6997 ft 178 kts 81°
2026-05-01 12:35 31.83623 131.05965 6997 ft 178 kts 81°
2026-05-01 12:35 31.83790 131.07422 6997 ft 178 kts 81°
2026-05-01 12:35 31.83956 131.08873 6998 ft 178 kts 81°
2026-05-01 12:35 31.84048 131.10316 6971 ft 180 kts 97°
2026-05-01 12:36 31.83620 131.11699 6860 ft 183 kts 112°
2026-05-01 12:36 31.83113 131.13083 6695 ft 187 kts 112°
2026-05-01 12:36 31.82590 131.14514 6523 ft 189 kts 112°
2026-05-01 12:36 31.82070 131.15938 6352 ft 190 kts 112°
2026-05-01 12:37 31.81552 131.17354 6182 ft 191 kts 112°
2026-05-01 12:37 31.81024 131.18799 6030 ft 190 kts 112°
2026-05-01 12:37 31.80699 131.20261 6014 ft 182 kts 92°
2026-05-01 12:37 31.80628 131.21721 6002 ft 179 kts 92°
2026-05-01 12:38 31.80557 131.23183 6002 ft 176 kts 92°
2026-05-01 12:38 31.80488 131.24615 6002 ft 175 kts 92°
2026-05-01 12:38 31.80417 131.26054 6004 ft 176 kts 92°
2026-05-01 12:38 31.80346 131.27498 6003 ft 177 kts 92°
2026-05-01 12:39 31.80274 131.28961 6002 ft 178 kts 92°
2026-05-01 12:39 31.80050 131.30377 5987 ft 177 kts 102°
2026-05-01 12:39 31.79760 131.31825 5771 ft 184 kts 102°
2026-05-01 12:39 31.79468 131.33285 5598 ft 185 kts 102°
2026-05-01 12:40 31.79172 131.34764 5442 ft 185 kts 102°
2026-05-01 12:40 31.78903 131.36247 5295 ft 185 kts 95°
2026-05-01 12:40 31.78826 131.37738 5140 ft 184 kts 92°
2026-05-01 12:40 31.78764 131.39191 4699 ft 178 kts 92°
2026-05-01 12:41 31.78907 131.40613 4028 ft 181 kts 64°
2026-05-01 12:41 31.79629 131.41801 3439 ft 180 kts 51°
2026-05-01 12:41 31.80638 131.42587 2857 ft 179 kts 11°
2026-05-01 12:41 31.81868 131.42752 2315 ft 177 kts
2026-05-01 12:42 31.83074 131.42953 1787 ft 176 kts
2026-05-01 12:42 31.84173 131.42438 1364 ft 169 kts 315°
2026-05-01 12:42 31.84974 131.41452 1307 ft 170 kts 312°
2026-05-01 12:42 31.85777 131.40410 1294 ft 174 kts 303°
2026-05-01 12:43 31.86423 131.39201 1295 ft 175 kts 301°
2026-05-01 12:43 31.87067 131.37993 1289 ft 171 kts 301°
2026-05-01 12:43 31.87895 131.37045 1278 ft 168 kts 336°
2026-05-01 12:43 31.89034 131.37021 1286 ft 166 kts 19°
2026-05-01 12:44 31.90085 131.37553 1292 ft 165 kts 23°
2026-05-01 12:44 31.91180 131.38028 1293 ft 167 kts 18°
2026-05-01 12:44 31.93409 131.38928 1290 ft 170 kts 18°
2026-05-01 12:45 31.95693 131.39668 1282 ft 171 kts 19°
2026-05-01 12:45 31.96630 131.40517 1283 ft 171 kts 51°
2026-05-01 12:45 31.97173 131.41754 1288 ft 170 kts 66°
2026-05-01 12:46 31.97556 131.43083 1280 ft 171 kts 81°
2026-05-01 12:46 31.97700 131.44459 1287 ft 171 kts 82°
2026-05-01 12:46 31.97843 131.45854 1287 ft 171 kts 82°
2026-05-01 12:46 31.97982 131.47247 1286 ft 171 kts 85°
2026-05-01 12:47 31.97644 131.48549 1278 ft 171 kts 128°
2026-05-01 12:47 31.96622 131.49202 1278 ft 171 kts 173°
2026-05-01 12:47 31.95464 131.48949 1292 ft 170 kts 197°
2026-05-01 12:47 31.94310 131.48585 1289 ft 171 kts 192°
2026-05-01 12:48 31.93143 131.48279 1287 ft 171 kts 192°
2026-05-01 12:48 31.91972 131.47972 1287 ft 171 kts 192°
2026-05-01 12:48 31.90820 131.47669 1350 ft 167 kts 192°
2026-05-01 12:48 31.89724 131.47380 1557 ft 159 kts 192°
2026-05-01 12:49 31.88596 131.47093 1404 ft 173 kts 188°
2026-05-01 12:49 31.87382 131.47029 1306 ft 176 kts 181°
2026-05-01 12:49 31.86158 131.46988 1289 ft 174 kts 181°
2026-05-01 12:49 31.84948 131.46947 1287 ft 173 kts 181°
2026-05-01 12:50 31.83749 131.47000 1288 ft 172 kts 172°
2026-05-01 12:50 31.82550 131.47180 1288 ft 171 kts 172°
2026-05-01 12:50 31.81361 131.47360 1288 ft 171 kts 172°
2026-05-01 12:50 31.80224 131.47693 1285 ft 171 kts 151°
2026-05-01 12:51 31.79133 131.48259 1290 ft 170 kts 159°
2026-05-01 12:51 31.78020 131.48743 1288 ft 171 kts 159°
2026-05-01 12:51 31.75681 131.49028 1284 ft 170 kts 188°
2026-05-01 12:52 31.74686 131.48325 1278 ft 171 kts 233°
2026-05-01 12:52 31.74983 131.45839 1282 ft 171 kts 322°
2026-05-01 12:52 31.76101 131.45480 1283 ft 171 kts
2026-05-01 12:53 31.78443 131.45792 1297 ft 170 kts 352°
2026-05-01 12:53 31.79626 131.45645 1290 ft 170 kts 353°
2026-05-01 12:53 31.80808 131.45503 1289 ft 171 kts 353°
2026-05-01 12:54 31.81998 131.45360 1289 ft 171 kts 353°
2026-05-01 12:54 31.84394 131.45316 1288 ft 171 kts
2026-05-01 12:54 31.85575 131.45387 1289 ft 171 kts
2026-05-01 12:55 31.87815 131.45692 1266 ft 136 kts
2026-05-01 12:55 31.88658 131.45825 1261 ft 109 kts 15°
2026-05-01 12:55 31.89354 131.46336 1301 ft 128 kts 37°
2026-05-01 12:56 31.90042 131.46967 1277 ft 116 kts 37°
2026-05-01 12:56 31.90638 131.47511 1273 ft 102 kts 37°
2026-05-01 12:56 31.91272 131.48097 1309 ft 129 kts 37°
2026-05-01 12:56 31.92042 131.48808 1304 ft 149 kts 37°
2026-05-01 12:57 31.92961 131.49446 1294 ft 160 kts 12°
2026-05-01 12:57 31.95096 131.48631 1292 ft 168 kts 333°
2026-05-01 12:57 31.96151 131.48007 1288 ft 170 kts 333°
2026-05-01 12:58 31.97204 131.47386 1282 ft 161 kts 333°
2026-05-01 12:58 31.98224 131.47224 1272 ft 146 kts 14°
2026-05-01 12:58 31.99000 131.47914 1279 ft 142 kts 59°
2026-05-01 12:59 31.98574 131.49986 1292 ft 143 kts 134°
2026-05-01 12:59 31.98092 131.51007 1291 ft 144 kts 115°
2026-05-01 12:59 31.96375 131.51747 1283 ft 146 kts 204°
2026-05-01 13:00 31.95721 131.49724 1283 ft 146 kts 294°
2026-05-01 13:00 31.96279 131.48737 1289 ft 146 kts 303°
2026-05-01 13:01 31.97608 131.46956 1280 ft 147 kts 339°
2026-05-01 13:01 31.98605 131.46995 1282 ft 146 kts 24°
2026-05-01 13:01 31.99270 131.49014 1283 ft 147 kts 113°
2026-05-01 13:02 31.98713 131.50015 1286 ft 146 kts 130°
2026-05-01 13:07 31.84055 131.31836 1296 ft 172 kts 262°
2026-05-01 13:07 31.83902 131.30441 1297 ft 172 kts 262°
2026-05-01 13:07 31.83574 131.29109 1292 ft 172 kts 234°
2026-05-01 13:08 31.82580 131.28378 1304 ft 171 kts 189°
2026-05-01 13:08 31.81455 131.28679 1322 ft 170 kts 143°
2026-05-01 13:08 31.80869 131.29807 1501 ft 163 kts 98°
2026-05-01 13:08 31.81139 131.31055 1678 ft 158 kts 52°
2026-05-01 13:09 31.82023 131.31763 1819 ft 158 kts 25°
2026-05-01 13:09 31.83062 131.32365 1671 ft 172 kts 33°
2026-05-01 13:09 31.83754 131.33533 1499 ft 180 kts 70°
2026-05-01 13:09 31.84161 131.34923 1333 ft 183 kts 71°
2026-05-01 13:10 31.84558 131.36339 1142 ft 178 kts 77°
2026-05-01 13:10 31.84670 131.37773 1010 ft 173 kts 85°
2026-05-01 13:10 31.84750 131.39143 990 ft 165 kts 85°
2026-05-01 13:10 31.84887 131.40459 988 ft 159 kts 82°
2026-05-01 13:11 31.84986 131.41746 988 ft 156 kts 85°
2026-05-01 13:11 31.85058 131.43007 988 ft 154 kts 85°
2026-05-01 13:11 31.85141 131.44255 988 ft 154 kts 84°
2026-05-01 13:11 31.85123 131.45392 972 ft 123 kts 114°
2026-05-01 13:12 31.84502 131.45811 898 ft 102 kts 192°
2026-05-01 13:12 31.84021 131.45195 966 ft 112 kts 263°
2026-05-01 13:12 31.84343 131.44389 993 ft 118 kts 326°
2026-05-01 13:12 31.85097 131.44408 1030 ft 114 kts 39°
2026-05-01 13:13 31.85321 131.45254 1029 ft 113 kts 109°
2026-05-01 13:13 31.84738 131.45819 1027 ft 115 kts 173°
2026-05-01 13:13 31.84060 131.45435 1011 ft 115 kts 240°
2026-05-01 13:13 31.84082 131.44553 1003 ft 115 kts 306°
2026-05-01 13:14 31.84806 131.44240 991 ft 115 kts 14°
2026-05-01 13:14 31.85315 131.44907 977 ft 116 kts 83°
2026-05-01 13:14 31.84963 131.45680 962 ft 116 kts 156°
2026-05-01 13:14 31.84256 131.45534 1071 ft 106 kts 227°
2026-05-01 13:15 31.84143 131.44694 1002 ft 113 kts 297°
2026-05-01 13:15 31.84795 131.44270 995 ft 114 kts
2026-05-01 13:15 31.85353 131.44833 1022 ft 111 kts 76°
2026-05-01 13:15 31.85329 131.45735 1051 ft 108 kts 81°
2026-05-01 13:16 31.85397 131.46617 1057 ft 111 kts 85°
2026-05-01 13:16 31.85449 131.47511 991 ft 104 kts 85°
2026-05-01 13:16 31.85495 131.48317 995 ft 98 kts 85°
2026-05-01 13:17 31.87120 131.48863 526 ft 88 kts 354°
2026-05-01 13:17 31.87719 131.48793 470 ft 85 kts 341°
2026-05-01 13:18 31.87900 131.47513 268 ft 85 kts 263°
2026-05-01 13:18 31.87850 131.46820 201 ft 85 kts 266°
2026-05-01 13:18 31.87801 131.46120 147 ft 92 kts 265°
2026-05-01 13:18 31.87756 131.45332 429 ft 101 kts 265°
2026-05-01 13:19 31.87710 131.44519 829 ft 97 kts 264°
2026-05-01 13:19 31.87656 131.43677 1032 ft 116 kts 265°
2026-05-01 13:19 31.87539 131.41936 1045 ft 109 kts 264°
2026-05-01 13:20 31.87380 131.41084 1077 ft 110 kts 230°
2026-05-01 13:20 31.86653 131.40898 1102 ft 109 kts 172°
2026-05-01 13:20 31.85856 131.40990 1039 ft 117 kts 175°
2026-05-01 13:21 31.84979 131.42136 952 ft 116 kts 88°
2026-05-01 13:21 31.85036 131.43074 984 ft 114 kts 84°
2026-05-01 13:21 31.85104 131.44011 990 ft 115 kts 84°
2026-05-01 13:21 31.85172 131.44963 990 ft 117 kts 84°
2026-05-01 13:22 31.85241 131.45924 989 ft 118 kts 84°
2026-05-01 13:22 31.85310 131.46878 987 ft 115 kts 84°
2026-05-01 13:22 31.85375 131.47742 998 ft 95 kts 84°
2026-05-01 13:22 31.85430 131.48511 991 ft 93 kts 83°
2026-05-01 13:23 31.85869 131.48965 828 ft 94 kts 356°
2026-05-01 13:23 31.86518 131.48892 700 ft 90 kts 355°
2026-05-01 13:23 31.87123 131.48822 597 ft 86 kts 354°
2026-05-01 13:23 31.87714 131.48746 454 ft 86 kts 338°
2026-05-01 13:24 31.87936 131.48146 342 ft 85 kts 267°
2026-05-01 13:24 31.87896 131.47455 266 ft 86 kts 264°
2026-05-01 13:24 31.87842 131.46747 177 ft 87 kts 265°
2026-05-01 13:25 31.87748 131.45361 25 ft 70 kts 264°
2026-05-01 13:25 31.87718 131.44939 25 ft 42 kts 264°
2026-05-01 13:25 31.87698 131.44672 25 ft 16 kts 266°
2026-05-01 13:25 31.87652 131.44585 25 ft 12 kts 187°
2026-05-01 13:26 31.87599 131.44586 25 ft 0 kts 183°
2026-05-01 13:26 31.87598 131.44586 25 ft 2 kts 178°
2026-05-01 13:26 31.87546 131.44572 25 ft 12 kts 218°
2026-05-01 13:27 31.87507 131.44496 25 ft 9 kts 195°
2026-05-01 13:27 31.87413 131.44507 25 ft 17 kts 176°
2026-05-01 13:27 31.87387 131.44530 25 ft 0 kts 83°